SL-12 DEB, 41699

Orbit data source: Space-Track

SL-12 DEB, 41699 is space debris in HEO originally from a launch on Mon, 01 Mar 2010 UTC launched from the Tyuratam Missile And Space Complex (TTMTR). Debris objects in space refer to the collection of defunct objects orbiting the Earth. Examples of debris include non-operational satellites, rocket bodies, and fragments generated from explosions, collisions, or faulty payload assembly.

Loading next visibility...
Identifier
41699, 2010-007R
Orbit
HEO
Country
Flag of CISCIS
Related business
Manufacturer
RKKE
Mission
Spacecraft
Bus & Motor
Unknown
Mass
Unknown
Launch date (UTC)
2010-03-01 (16 years ago)
Launch vehicle
Unknown
Launch site
Tyuratam Missile And Space Complex (TTMTR)
Object type
Payload
Rocket body
Debris
Shape & HBR
Unknown shape, 0.6 m
Radar Cross Section
Medium (>0.1 m² and <1 m²)

Expand to show TLE details & history
Last TLE update: 23 hours ago

TLE from 23 hours ago
0 SL-12 DEB
1 41699U 10007R   25287.55726514  .00000267  00000-0  17024-2 0  9997
2 41699  64.8435 228.7885 5574260 317.5002  10.7026  4.37294591177081
Epoch: 2025-10-14T13:22Z
TLE epoch observation values (Epoch: 2025-10-14T13:22:27.708Z)
Latitude
0.00017°
Longitude
4.81663°
Altitude
1,342.381 km
Speed
8.834 km/s
True Right ascension
15h 15m 06s
True Declination
0° 00' 01"
Sunlit
Object was in daylight at epoch
Visualization orbit readout
Latitude
Unknown
Longitude
Unknown
Altitude
Unknown
Speed
Unknown
Apparent Right ascension
Unknown
Apparent Declination
Unknown
Sunlit
N/A
Visualization observer readout
Local Sidereal Time
07:05:38
Azimuth
Unknown
Elevation
Unknown
Doppler factor
Unknown
Orbital elements
Apogee altitude
18,221.543 km
Perigee altitude
612.358 km
Semi-major axis
15,795.088 km
Eccentricity
0.55743
Inclination
64.8435°
RAAN
228.7885°
Arg. of periapsis
317.5002°
True anomaly
42.41438°
Mean anomaly
10.7026°
Eccentric anomaly
23.37291°
Mean motion
1.09335 °/min
Orbital period
329.26 mins
BSTAR
0.0017024
Loading maneuver chart data...
Computing Atmospheric mass density...
Loading historical data...
Loading historical data...
Loading historical data...
Loading historical data...
Loading historical data...
Loading historical data...
Loading historical data...

Documentation

Showing up to 5 results
|